Dewpoint
39 35 32 30 33 34 34 30 27 29 32 33 32 35 40 47 56 55 52 54 54 55 57 60 60 60 62 66 69 70 71 75 73 72 71 71 69 71 71 73 75 76 76 77
37 35 34 32 32 32 32 30 26 26 26 29 32 31 37 46 53 53 52 57 55 53 55 59 60 60 61 66 70 71 72 75 74 73 73 72 72 71 71 72 75 75 75 77
35 34 34 32 32 27 31 30 28 25 25 27 31 31 34 41 42 44 49 53 53 55 55 58 60 60 61 66 70 72 73 75 74 75 74 75 75 75 70 71 73 73 75 76
35 33 31 31 29 28 25 29 26 25 24 22 26 25 37 35 36 40 42 47 51 55 56 58 59 60 61 65 69 73 74 75 75 76 74 74 70 68 70 70 71 72 74 76
35 30 26 25 26 23 19 17 21 21 23 23 24 24 29 36 34 35 42 47 53 54 55 57 58 61 62 64 68 72 75 75 76 75 76 73 71 70 69 70 74 74 75 75
33 33 25 19 19 16 15 13 14 15 16 21 23 23 28 30 37 35 39 41 50 51 55 59 59 61 62 64 67 71 75 75 76 76 75 76 73 72 69 70 70 72 73 74
28 30 29 21 18 18 15 13 14 14 14 15 21 22 29 30 36 35 35 39 44 51 54 59 61 61 62 64 67 69 74 74 75 75 74 75 75 73 75 74 70 71 70 72
22 21 25 19 18 19 16 13 14 19 14 11 18 19 23 29 30 35 35 36 41 46 50 56 61 61 62 63 66 68 73 74 75 75 75 74 77 73 71 75 70 71 70 70
21 21 22 21 17 18 19 17 14 12 12 9 10 16 19 26 27 30 29 35 38 42 46 55 59 62 63 63 66 68 72 74 75 74 75 75 75 76 71 73 75 73 74 71
24 22 19 20 19 18 19 19 15 15 20 18 12 21 18 27 29 31 33 31 38 42 46 53 58 61 62 62 64 67 71 73 75 75 75 75 74 75 75 73 75 73 75 74
19 22 20 21 21 19 18 19 18 15 15 15 16 13 25 32 33 34 33 34 37 43 47 51 57 60 62 62 63 65 68 72 74 75 75 75 75 75 75 74 74 76 74 78
22 17 22 23 21 20 18 20 22 19 26 18 19 16 22 28 30 32 33 35 38 42 49 50 54 59 61 62 62 64 67 69 73 75 75 75 75 76 75 74 74 75 77 75
33 26 24 25 22 21 20 19 21 20 19 28 18 16 24 27 32 36 34 38 42 46 47 50 53 57 60 62 63 63 66 66 71 74 75 75 75 75 75 76 74 75 75 77
38 32 30 24 27 24 24 19 20 19 20 22 18 23 26 27 27 34 39 41 41 48 50 51 53 57 59 62 65 65 65 66 68 71 73 74 75 75 75 75 76 75 76 75
32 33 31 26 25 23 19 19 19 22 24 23 21 21 29 34 35 35 38 43 44 47 50 53 53 59 61 64 66 67 66 67 67 69 72 73 74 75 75 76 76 77 76 76
31 32 34 31 28 27 25 20 19 18 18 20 20 20 28 35 39 39 41 41 42 45 45 49 54 58 61 66 67 67 67 68 68 70 70 72 74 75 76 76 76 76 76 76
30 32 33 32 32 29 27 25 21 20 19 19 22 28 31 34 36 38 38 37 39 36 38 45 51 55 59 60 69 68 68 69 71 71 71 72 74 74 75 76 76 76 76 77
27 32 33 30 33 29 29 29 27 22 21 21 25 29 34 37 39 38 37 37 39 38 44 51 38 48 57 48 51 63 68 72 71 73 73 75 75 74 75 76 76 77 76 77
25 28 28 29 29 31 29 30 28 27 26 25 26 28 31 32 33 38 35 35 38 44 47 47 42 45 60 54 57 60 62 70 71 70 73 73 75 75 75 76 76 77 77 77
21 28 26 30 28 27 31 29 28 28 27 44 34 29 30 30 28 48 57 56 56 56 58 60 58 57 53 64 56 62 61 67 70 70 71 74 74 75 75 76 77 77 77 77
20 24 23 25 27 29 37 32 30 29 44 49 47 41 38 44 53 55 54 56 58 60 60 61 62 61 68 68 64 69 68 65 69 71 72 74 76 75 75 77 77 77 77 77
21 23 23 25 26 28 32 34 37 46 45 44 46 47 48 49 50 52 53 56 59 61 60 58 62 63 65 68 69 70 72 75 75 75 73 75 77 74 74 77 78 78 77 77
24 26 23 25 26 43 35 35 35 36 39 39 42 40 43 46 48 52 55 58 62 63 63 62 64 67 71 72 75 74 77 78 77 79 77 77 78 77 76 77 77 76 77 76
32 31 26 29 30 32 30 30 31 34 34 38 36 38 46 47 47 49 55 58 63 65 64 63 65 67 73 75 76 76 77 78 78 79 79 79 78 77 77 76 76 75 75 75
26 29 31 30 30 31 30 32 32 32 34 35 36 37 44 45 46 48 54 59 61 65 68 70 70 69 70 71 71 71 73 75 75 77 77 78 76 77 77 76 74 75 75 71
26 27 24 25 34 38 39 36 33 33 33 35 36 39 44 44 48 49 57 61 63 64 66 68 70 68 70 70 70 71 72 73 75 76 74 73 72 73 73 74 74 65 61 57
Lifted_Index
6 6 6 6 5 4 3 2 1 0 -0 -0 -0 -0 -1 -1 -2 -2 -2 -2 -2 -2 -2 -3 -3 -3 -3 -3 -4 -4 -4 -5 -5 -4 -4 -4 -3 -3 -3 -3 -4 -5 -5 -5
5 6 6 6 5 4 4 3 1 0 -1 -1 -0 -0 -1 -1 -2 -2 -2 -2 -2 -2 -2 -3 -3 -2 -2 -3 -4 -4 -5 -5 -5 -5 -4 -4 -4 -3 -3 -3 -4 -4 -5 -5
5 5 5 5 5 5 4 3 2 0 -1 -1 -0 -0 -1 -1 -1 -1 -2 -2 -2 -2 -2 -3 -3 -2 -2 -3 -4 -5 -5 -5 -5 -5 -5 -4 -4 -3 -3 -3 -3 -4 -5 -5
5 5 6 6 6 6 5 4 3 1 -0 -1 -1 -1 -1 -1 -1 -1 -2 -2 -2 -2 -3 -3 -3 -2 -2 -3 -4 -5 -5 -5 -5 -5 -5 -4 -4 -3 -3 -3 -3 -4 -5 -5
5 5 6 6 6 6 6 4 3 2 0 -1 -1 -1 -1 -0 -0 -1 -1 -2 -3 -3 -3 -3 -3 -2 -2 -3 -4 -5 -5 -5 -5 -5 -5 -4 -3 -3 -3 -2 -3 -4 -5 -6
5 5 6 6 6 6 5 4 3 2 1 0 -0 -0 -0 -1 -0 -1 -1 -2 -3 -3 -3 -4 -3 -3 -2 -3 -4 -5 -5 -5 -5 -5 -5 -4 -4 -3 -3 -3 -3 -4 -5 -5
5 5 5 5 5 5 5 4 2 1 1 1 1 1 0 -0 -0 -1 -1 -1 -2 -3 -4 -4 -4 -3 -3 -3 -3 -4 -5 -6 -6 -5 -5 -5 -4 -3 -3 -3 -3 -3 -4 -4
5 5 5 5 5 5 5 5 3 1 1 1 1 1 1 1 -0 -0 -1 -1 -2 -3 -4 -4 -4 -4 -3 -3 -3 -4 -5 -6 -6 -6 -5 -5 -4 -4 -4 -4 -4 -3 -3 -4
4 4 4 5 5 5 5 5 3 2 0 -0 0 1 1 1 0 -0 -1 -1 -1 -2 -3 -4 -4 -4 -3 -3 -3 -4 -5 -6 -6 -6 -5 -5 -4 -4 -4 -4 -4 -4 -4 -4
4 3 3 3 4 4 4 4 3 2 1 -0 -1 -0 0 1 1 0 -0 -1 -1 -2 -3 -4 -4 -4 -4 -3 -3 -3 -4 -5 -6 -6 -5 -5 -5 -5 -4 -4 -5 -5 -5 -5
3 2 1 1 2 3 4 3 3 3 1 0 -1 -1 -0 0 0 0 0 -0 -1 -2 -3 -4 -4 -4 -4 -3 -3 -3 -4 -5 -6 -6 -6 -6 -5 -5 -5 -5 -5 -6 -6 -6
3 2 1 1 1 2 3 3 3 3 2 1 -0 -0 -0 0 0 0 0 0 -1 -2 -3 -3 -4 -4 -4 -4 -3 -3 -4 -5 -6 -6 -6 -6 -6 -6 -6 -6 -6 -7 -7 -7
2 2 2 1 1 1 2 3 3 3 2 2 1 0 0 0 0 1 1 0 -0 -1 -2 -3 -4 -4 -4 -4 -4 -4 -4 -5 -6 -6 -7 -6 -7 -7 -7 -7 -6 -7 -8 -8
2 2 2 1 1 0 1 2 2 2 2 2 1 0 1 1 1 1 1 1 0 -1 -2 -3 -4 -4 -4 -4 -5 -5 -5 -5 -6 -6 -7 -7 -7 -7 -7 -7 -7 -8 -8 -8
3 2 2 1 1 0 0 1 2 2 2 1 0 0 1 1 2 2 2 2 1 -0 -1 -3 -3 -3 -4 -4 -5 -5 -5 -5 -5 -6 -6 -7 -8 -8 -8 -8 -8 -8 -8 -8
3 2 1 1 1 0 0 1 1 1 1 0 -0 0 1 2 2 3 3 3 3 2 1 -0 -1 -1 -2 -3 -5 -5 -6 -6 -6 -6 -6 -7 -8 -8 -9 -9 -9 -9 -9 -9
4 3 2 1 1 1 0 0 0 0 -0 -0 -0 0 0 1 2 3 4 4 4 4 3 3 2 1 0 -2 -4 -5 -6 -6 -6 -6 -7 -7 -8 -8 -9 -9 -9 -9 -9 -9
5 4 3 2 1 1 0 0 0 -0 -0 -0 -0 0 0 0 1 3 4 5 5 5 4 4 3 3 2 0 -2 -4 -6 -7 -7 -7 -7 -8 -8 -9 -9 -9 -9 -9 -10 -10
6 5 4 2 1 1 0 0 0 0 -0 -1 -0 0 1 1 1 2 3 4 4 4 3 3 3 3 2 1 -0 -2 -4 -6 -7 -7 -8 -8 -9 -9 -9 -9 -9 -10 -10 -10
5 5 4 2 1 1 0 0 0 0 -1 -1 -1 0 1 1 0 0 1 1 1 1 1 1 1 1 1 0 0 -1 -2 -4 -6 -7 -8 -8 -9 -9 -9 -10 -10 -10 -10 -10
4 4 3 2 1 1 1 1 0 -0 -1 -1 -1 0 1 1 1 1 1 0 -0 -1 -1 -0 0 0 -0 -0 0 -0 -2 -3 -5 -7 -8 -9 -9 -9 -10 -10 -10 -10 -10 -10
3 3 2 2 1 1 2 2 1 1 0 -0 1 2 2 3 3 3 2 1 -1 -2 -2 -1 -1 -1 -1 -1 -1 -2 -3 -4 -5 -7 -8 -9 -9 -9 -10 -10 -10 -10 -10 -10
1 1 2 2 2 2 3 3 3 3 2 2 3 4 5 5 5 4 3 0 -2 -3 -2 -2 -2 -2 -3 -3 -4 -4 -5 -5 -6 -7 -8 -8 -9 -9 -9 -9 -10 -10 -10 -10
1 1 2 2 3 3 4 4 5 5 5 6 7 7 7 6 6 4 2 0 -2 -3 -3 -3 -3 -3 -4 -5 -6 -6 -6 -6 -6 -7 -8 -8 -8 -8 -8 -9 -9 -9 -9 -9
2 2 2 3 3 4 5 5 6 7 7 8 9 8 7 7 6 5 3 1 -1 -2 -3 -4 -4 -4 -4 -5 -5 -5 -5 -6 -6 -7 -7 -7 -7 -7 -8 -8 -8 -8 -8 -8
2 3 3 3 3 4 5 6 7 7 8 8 9 9 8 7 6 5 3 1 -0 -1 -3 -4 -4 -4 -4 -4 -4 -4 -5 -5 -6 -7 -7 -7 -7 -7 -7 -7 -7 -7 -7 -7